Find Starlink 5468

NORAD ID: 54777 Int'l Des: 2022-175 Owner: SPXS Country: US Constellation: starlink operational
LEOCIRCULAR

現在のビュー

3D地球を読み込み中...

About Starlink 5468

Starlink 5468 (NORAD 54777) is a starlink constellation satellite (v1.5) launched Dec 17, 2022 by SPXS of US. It operates in LEO, CIRCULAR orbit with a mass of 305.00 kg.

Starlink 5468について

説明を読み込み中...

次回通過

Passes for default location (London). Set your location on the main map for personalized predictions.

高度履歴

Loading altitude history...

軌道要素

1 54777U 22175V 26170.64479151 -.00000395 00000-0 -67233-5 0 9995
2 54777 53.1596 306.1117 0001225 91.0744 269.0387 15.08834299195318
Epoch: Jun 19, 2026 • Age: 22 hours

現在のステータス

高度 555.2 km
速度 7.58 km/s
衛星直下点 -43.88°S, 61.05°E
打ち上げ日 Dec 17, 2022
運用期間 3.5 years
タイプ internet

技術仕様

分類 Payload
質量 305.00 kg
乾燥質量 290.00 kg
総質量 305.00 kg
長さ 0.20 m
直径 2.80 m
スパン 9.00 m
形状 Box + pan
製造者 SPXS
バスタイプ Starlink
フェーズステータス In Orbit
所有者/国 SPXS/US

Most Searched